Regional Weather Roundup
Issued by NWS Upton, NY

Current Version | Previous Version | Text Only | Print | Product List | Glossary On
Versions: 1 2 3 4 5 6 7 8 9 10 11 12 13 14 15 16 17 18 19 20 21 22 23 24 25 26 27
000
ASUS41 KOKX 260704
RWROKX

REGIONAL WEATHER ROUNDUP
NATIONAL WEATHER SERVICE NEW YORK NY
300 AM EDT TUE JUL 26 2016

NOTE: "FAIR" INDICATES FEW OR NO CLOUDS BELOW 12,000 FEET WITH NO
SIGNIFICANT WEATHER AND/OR OBSTRUCTIONS TO VISIBILITY.

NYZ071-072-176-178-NJZ106-104-260800-
NEW YORK CITY METRO AREA

CITY           SKY/WX    TMP DP  RH WIND       PRES   REMARKS
Central Park   CLEAR     72  70  93 VRB3      29.89S
LaGuardia APRT CLEAR     77  70  79 W8        29.85F
Kennedy INTL   PTCLDY    75  70  84 W14       29.87S
Newark/Liberty PTCLDY    74  70  87 W10       29.86F
Bronx Bot Gard   N/A     73  68  83 W9        29.89R
Wall St Helipt SUNNY     75  72  88 W7        29.87S
Teterboro      CLEAR     73  68  84 CALM      29.86S
$$

NYZ177-179-078>081-260800-
LONG ISLAND NEW YORK

CITY           SKY/WX    TMP DP  RH WIND       PRES   REMARKS
Farmingdale    CLEAR     74  70  87 W8        29.85S
MacArthur/ISP  CLEAR     73  71  93 W9        29.84S
Shirley        CLEAR     73  71  93 W5        29.84F
Riverhead      NOT AVBL
Westhampton    CLEAR     73  70  90 W12       29.85S
Southhampton     N/A     72  72 100 NW7       29.80S
Bridgehampton    N/A     72  72 100 SW3       29.82S
East Hampton   CLOUDY    73  71  93 W3        29.82S
Montauk          N/A     73  71  93 W9G18     29.83S
$$

NYZ052-065-067-260800-
HUDSON VALLEY

CITY           SKY/WX    TMP DP  RH WIND       PRES   REMARKS
White Plains   CLEAR     71  69  93 W9        29.86S
Newburgh       NOT AVBL
Montgomery     PTCLDY    69  68  96 S6        29.87S
Poughkeepsie   MOCLDY    72  68  87 S5        29.85S
Albany         PTCLDY    72  67  84 S3        29.83F
$$

NJZ001-105-106-008-010-013-015-019>022-104-260800-
NEW JERSEY

CITY           SKY/WX    TMP DP  RH WIND       PRES   REMARKS
Newark/Liberty PTCLDY    74  70  87 W10       29.86F
Teterboro      CLEAR     73  68  84 CALM      29.86S
Caldwell       CLEAR     72  69  90 CALM      29.87F
Morristown     CLEAR     68  66  94 CALM      29.88S
Somerville     CLEAR     71  69  93 W3        29.87S
Linden         NOT AVBL
Sussex         CLOUDY    69  69 100 CALM      29.89S
Abdover          N/A     68  67  96 CALM      29.90F
Trenton        CLEAR     72  70  93 W3        29.90R
Millville      CLOUDY    74  71  91 CALM      29.91S
Atlantic City  CLEAR     74  71  91 W5        29.90R
Wrightstown    CLEAR     72  71  97 W6        29.87S
Toms River     CLEAR     72  71  97 W7        29.90R
Belmar         CLOUDY    72  71  97 W10       29.90S
$$

PAZ047>061-062-071-260800-
EASTERN PENNSYLVANIA

CITY           SKY/WX    TMP DP  RH WIND       PRES   REMARKS
Philadelphia   PTCLDY    75  73  93 SW8       29.91S
Allentown      CLEAR     68  65  90 W3        29.91S FOG
Scranton       PTCLDY    68  67  96 SW7       29.92F
$$

CTZ002-004>006-009-010-012-RIZ004-006-007-MAZ004-011-015-260800-
SOUTHERN NEW ENGLAND
 IN CT

CITY           SKY/WX    TMP DP  RH WIND       PRES   REMARKS
Bradley INTL   CLEAR     72  65  78 CALM      29.81R
Hartford       CLEAR     73  68  84 CALM      29.82R
Danbury        CLEAR     69  67  93 W3        29.87S
Wtrbury/Oxford   N/A     68  64  88 CALM      29.87R
Bridgeport     CLEAR     73  69  87 W9        29.83S
Meriden        CLEAR     69  66  90 CALM      29.83S
New Haven      CLEAR     71  69  93 CALM      29.83S
Chester        FAIR      70  68  94 VRB5      29.83S
Groton         CLEAR     72  69  90 W6        29.81S
Wilimantic     NOT AVBL

 IN RI

CITY           SKY/WX    TMP DP  RH WIND       PRES   REMARKS
Providence     CLEAR     73  68  84 W7        29.79S
Block Island   PTCLDY    70  69  97 W10       29.82S
Westerly       CLEAR     72  68  87 W3        29.82S
 IN MA

CITY           SKY/WX    TMP DP  RH WIND       PRES   REMARKS
Boston         CLEAR     79  68  69 W14       29.75S
Worchester     CLEAR     70  66  87 W13       29.82S
Westfield      CLEAR     68  65  90 S3        29.81S
Provincetown   CLEAR     71  69  93 SW8       29.76F
Nantucket      CLEAR     73  69  87 W15       29.78F
$$

ANZ330-335-338-340-345-350-353-355-260800-
COASTAL MARINE OBSERVATIONS


STATION/POSITION TIME  SKY/WX   TEMP    WIND        PRES    VSBY  WAVE
                                AIR SEA DIR/SP/G                  HT/PER
                 (UTC)          (F)     (DEG/KT/KT) (MB)    (MI)  (FT/S)
NY HARB ENTRANCE 0550            73 73  290/ 10/ 12 1010.4          2/ 4
20S FIRE ISLAND  0550            75 73  280/ 12/ 16 1010.2          2/ 4
GREAT SOUTH BAY  0615            76 80  290/ 12/ 16   N/A
23 SSW MONTAUK P 0550            73 72  270/ 16/ 19 1010.2          3/ 5
15 E BARNEGAT LI 0622               75                N/A           3/ 6
HUDSON CANYON    0550            77 77              1010.2          3/ 5
KINGS POINT      0600            74 72              1010.9
EXECUTION ROCKS  0600            74     260/ 10/ 16   N/A
CENTRAL LI SOUND 0600            74 74  290/ 12/ 16   N/A           2/ 4
EASTERN LI SOUND 0600            72 68  270/ 14/ 21   N/A
ROBBINS REEF     0600            74     290/ 15/ 18 1010.4
$$


>>>>>>>>>>>>>>>>>>>>>>>>>>>> KEY <<<<<<<<<<<<<<<<<<<<<<<<<<<
>                                                          <
>     SKY/WX - Sky Condition/Present Weather               <
>     TMP    - Temperature in Fahrenheit                   <
>     DP     - Dew Point in Fahrenheit                     <
>     RH     - Relative Humidity in Percent                <
>     WIND   - Direction (from) and Speed in MPH           <
>     PRES   - Mean Sea Level Pressure (inches of Hg)      <
>     WCI    - Wind Chill Index                            <
>     VSB    - VISIBILITY IN MILES                         <
>     HX     - HEAT INDEX                                  <
>     TC     - TEMPERATURE IN CELSIUS                      <
>     VRB    - VARIABLE WIND DIRECTION                     <
>                                                          <
>>>>>>>>>>>>>>>>>>>>>>>>>>>> KEY <<<<<<<<<<<<<<<<<<<<<<<<<<<




USA.gov is the U.S. government's official web portal to all federal, state and local government web resources and services.